Tracking 25701 objects as of 4-Jul-2022
HD Live streaming from Space Station
objects crossing your sky now

FENGYUN 1C DEB

Track FENGYUN 1C DEB now!
10-day predictions


NORAD ID: 31345
Int'l Code: 1999-025BQZ
Perigee: 834.8 km
Apogee: 955.7 km
Inclination: 98.1 °
Period: 102.7 minutes
Semi major axis: 7266 km
RCS: 0.0093 m2 (small)
Launch date: May 10, 1999
Source: People's Republic of China (PRC)
Launch site: Taiyaun Space Center, China (TSC)

Note: This is SATELLITE DEBRIS
aabbcc
Your satellite tracking list
Your tracking list is empty




NASA's NSSDC Master Catalog

Two Line Element Set (TLE):
1 31345U 99025BQZ 22179.60524107  .00000833  00000-0  55682-3 0  9990
2 31345  98.1398 306.0030 0083155 100.7750 260.2793 14.01644258777487
Source of the keplerian elements: AFSPC